Regional Weather Roundup
Issued by NWS

Home | Current Version | Previous Version | Graphics & Text | Print | Product List | Glossary On
Versions: 1 2 3 4 5 6 7 8 9 10 11 12 13 14 15 16 17 18 19 20 21 22 23 24 25 26 27 28 29 30 31 32 33 34 35 36 37 38 39 40 41 42 43 44 45 46 47 48 49 50
860
ASUS43 KBIS 010002
RWRND

NORTH DAKOTA REGIONAL WEATHER ROUNDUP
NATIONAL WEATHER SERVICE BISMARCK ND
700 PM CDT SAT APR 30 2016

NOTE: "FAIR" INDICATES FEW OR NO CLOUDS BELOW 12,000 FEET WITH NO
SIGNIFICANT WEATHER AND/OR OBSTRUCTIONS TO VISIBILITY.


NDZ001>003-009>011-017-010100-
NORTHWEST NORTH DAKOTA

CITY           SKY/WX    TMP DP  RH WIND       PRES   REMARKS
WILLISTON      MOSUNNY   63  29  27 E8        30.25S
6HR MIN TEMP:  59; 6HR MAX TEMP:  64;

MINOT          SUNNY     65  24  21 NE15G21   30.24R
MINOT AFB      SUNNY     62  27  26 E10       30.23R
$$

NDZ018>021-031>035-040>046-010100-
SOUTHWEST NORTH DAKOTA

CITY           SKY/WX    TMP DP  RH WIND       PRES   REMARKS
BISMARCK       MOSUNNY   58  29  33 NE12G22   30.20R
6HR MIN TEMP:  57; 6HR MAX TEMP:  61;

DICKINSON      MOSUNNY   53  27  36 NE14      30.21R
GARRISON         N/A     59  24  26 NE9       30.23R
6HR MIN TEMP:  55; 6HR MAX TEMP:  62;

HETTINGER ARPT CLOUDY    56  26  31 NE18      30.20R
$$

NDZ004>008-012>016-024-026-027-054-010100-
NORTHEAST NORTH DAKOTA

CITY           SKY/WX    TMP DP  RH WIND       PRES   REMARKS
GRAND FORKS    MOSUNNY   58  27  30 NE17      30.22R
GRND FRKS AFB  SUNNY     58  26  28 E13G24    30.22S
DEVILS LAKE    SUNNY     59  29  31 NE16      30.23S
$$

NDZ022-023-025-028>030-036>039-047>053-010100-
SOUTHEAST NORTH DAKOTA

CITY           SKY/WX    TMP DP  RH WIND       PRES   REMARKS
FARGO          CLOUDY    61  25  25 NE20G30   30.14R
6HR MIN TEMP:  61; 6HR MAX TEMP:  65;

JAMESTOWN      CLOUDY    58  23  26 NE21      30.18R
$$





USA.gov is the U.S. government's official web portal to all federal, state and local government web resources and services.